EW9592 Weather Reports


Display with metric or nautical units.
time (UTC)temp
F
wind
direction
speed
MPH
gust
MPH
rain 1hr
in
rain 24hr
in
rain mn
in
humidity
%
barometer
mb
20260508080035 39 116 0.0 0.0 0.00 0.00 0.00 92 1015.1
20260508074536 39 115 0.0 0.0 0.00 0.00 0.00 92 1015.0
20260508073043 40 116 0.0 0.0 0.00 0.00 0.00 92 1015.0
20260508071536 40 116 0.0 0.0 0.00 0.00 0.00 92 1015.1
20260508070028 40 115 0.0 0.0 0.00 0.00 0.00 92 1015.2
20260508064530 40 116 0.0 0.0 0.00 0.00 0.00 92 1015.3
20260508063023 41 116 0.0 0.0 0.00 0.00 0.00 92 1015.4
20260508061522 41 116 0.0 0.0 0.00 0.00 0.00 92 1015.6
20260508060026 41 115 0.0 0.0 0.00 0.00 0.00 91 1015.6
20260508054549 41 116 0.0 0.0 0.00 0.00 0.00 91 1015.7
20260508053017 42 115 0.0 0.0 0.00 0.00 0.00 91 1015.9
20260508051514 42 116 0.0 0.0 0.00 0.00 0.00 91 1016.0
20260508050012 42 115 0.0 0.0 0.00 0.00 0.00 90 1015.8
20260508044511 42 116 0.0 0.0 0.00 0.00 0.00 90 1015.8
20260508043009 43 115 0.0 0.0 0.00 0.00 0.00 90 1015.7
20260508041512 43 116 0.0 0.0 0.00 0.00 0.00 90 1015.8
20260508040005 43 115 0.0 0.0 0.00 0.00 0.00 89 1015.8
20260508034505 44 359 0.0 0.0 0.00 0.00 0.00 89 1015.7
20260508033008 44 359 0.0 0.0 0.00 0.00 0.00 88 1015.7
20260508031505 44 359 0.0 0.0 0.00 0.00 0.00 87 1015.8
20260508030004 45 359 0.0 0.0 0.00 0.00 0.00 86 1015.7
20260508024502 45 359 0.0 0.0 0.00 0.00 0.00 85 1015.6
20260508023002 46 358 0.0 0.0 0.00 0.00 0.00 83 1015.5
20260508021502 46 358 0.0 0.0 0.00 0.00 0.00 81 1015.4
20260508020002 47 359 0.0 0.0 0.00 0.00 0.00 80 1015.2
20260508014502 48 359 0.0 0.0 0.00 0.00 0.00 77 1015.1
20260508013104 49 358 0.0 0.0 0.00 0.00 0.00 75 1014.9
20260508011615 50 358 0.0 0.0 0.00 0.00 0.00 73 1014.7
20260508004559 52 359 0.0 0.0 0.00 0.00 0.00 68 1014.5
20260508003058 54 359 0.0 0.0 0.00 0.00 0.00 65 1014.4
20260508001601 55 359 0.0 0.0 0.00 0.00 0.00 64 1014.3
20260508000056 57 358 0.0 0.0 0.00 0.00 0.00 60 1014.2
20260507234559 58 359 0.0 0.0 0.00 0.00 0.00 56 1014.1
20260507233158 59 359 0.0 0.0 0.00 0.00 0.00 55 1014.2
20260507231504 60 359 0.0 1.0 0.00 0.00 0.00 48 1014.2
20260507230004 61 297 0.0 1.0 0.00 0.00 0.00 48 1014.3
20260507224510 61 65 0.0 2.0 0.00 0.00 0.00 42 1014.4
20260507223002 62 27 0.0 1.0 0.00 0.00 0.00 40 1014.4
20260507221502 62 47 0.0 2.0 0.00 0.00 0.00 40 1014.3
20260507220004 62 36 0.0 2.0 0.00 0.00 0.00 41 1014.4
20260507214501 62 15 0.0 2.0 0.00 0.00 0.00 41 1014.3
20260507213100 61 317 0.0 2.0 0.00 0.00 0.00 43 1014.4
20260507211602 62 287 0.0 2.0 0.00 0.00 0.00 39 1014.3
20260507210104 62 338 0.0 2.0 0.00 0.00 0.00 45 1014.4
20260507204559 61 238 0.0 4.0 0.00 0.00 0.00 39 1014.4
20260507203059 61 296 0.0 4.0 0.00 0.00 0.00 40 1014.4
20260507201554 61 208 0.0 3.0 0.00 0.00 0.00 42 1014.4
20260507200052 61 262 0.0 5.0 0.00 0.00 0.00 41 1014.6
20260507194552 61 184 0.0 4.0 0.00 0.00 0.00 40 1014.6
20260507193050 61 257 0.0 2.0 0.00 0.00 0.00 40 1014.6
20260507191552 61 9 0.0 3.0 0.00 0.00 0.00 41 1014.6
20260507190051 61 8 0.0 4.0 0.00 0.00 0.00 40 1014.8
20260507184547 61 278 0.0 3.0 0.00 0.00 0.00 44 1014.8
20260507183048 60 45 0.0 2.0 0.00 0.00 0.00 40 1014.8
20260507181544 60 40 0.0 4.0 0.00 0.00 0.00 41 1014.9
20260507180052 60 256 0.0 3.0 0.00 0.00 0.00 42 1015.0
20260507174542 60 44 1.0 3.0 0.00 0.00 0.00 39 1015.2
20260507173046 59 24 0.0 3.0 0.00 0.00 0.00 40 1015.4
20260507171553 59 271 0.0 3.0 0.00 0.00 0.00 44 1015.6
20260507170038 59 73 1.0 4.0 0.00 0.00 0.00 41 1015.7
20260507164545 59 85 0.0 3.0 0.00 0.00 0.00 41 1016.0
20260507163044 58 354 0.0 4.0 0.00 0.00 0.00 41 1016.2
20260507161541 58 217 1.0 3.0 0.00 0.00 0.00 39 1016.2
20260507160045 58 343 0.0 3.0 0.00 0.00 0.00 41 1016.1
20260507154534 58 264 0.0 4.0 0.00 0.00 0.00 49 1016.2
20260507153031 57 150 0.0 1.0 0.00 0.00 0.00 49 1016.1
20260507151526 56 27 0.0 3.0 0.00 0.00 0.00 51 1016.0
20260507150028 55 346 0.0 4.0 0.00 0.00 0.00 53 1015.9
20260507144529 54 298 0.0 3.0 0.00 0.00 0.00 54 1016.0
20260507143020 54 333 0.0 3.0 0.00 0.00 0.00 54 1016.2
20260507141519 53 17 0.0 3.0 0.00 0.00 0.00 53 1016.0
20260507140012 52 89 0.0 1.0 0.00 0.00 0.00 61 1016.0
20260507134508 51 1 0.0 2.0 0.00 0.00 0.00 61 1016.0
20260507133006 50 334 0.0 1.0 0.00 0.00 0.00 66 1016.0
20260507131501 49 212 0.0 0.0 0.00 0.00 0.00 77 1016.0
20260507130110 47 222 0.0 1.0 0.00 0.00 0.00 84 1016.1
20260507124633 46 32 0.0 1.0 0.00 0.00 0.00 90 1015.9
20260507123055 45 32 0.0 0.0 0.00 0.00 0.00 92 1015.9
20260507121554 44 352 0.0 0.0 0.00 0.00 0.00 92 1016.1
20260507120053 43 352 0.0 0.0 0.00 0.00 0.00 92 1016.1
20260507114610 43 353 0.0 0.0 0.00 0.00 0.00 92 1016.2
20260507113055 42 353 0.0 0.0 0.00 0.00 0.00 92 1016.1
20260507111548 42 353 0.0 0.0 0.00 0.00 0.00 93 1015.8
20260507110049 42 353 0.0 0.0 0.00 0.00 0.00 93 1015.7
20260507104551 42 353 0.0 0.0 0.00 0.00 0.00 93 1015.4
20260507103042 43 353 0.0 0.0 0.00 0.00 0.00 93 1015.3
20260507101542 43 352 0.0 0.0 0.00 0.00 0.00 93 1015.3
20260507100043 43 353 0.0 0.0 0.00 0.00 0.00 93 1015.3
20260507094543 43 353 0.0 0.0 0.00 0.00 0.00 93 1015.4
20260507093042 43 353 0.0 0.0 0.00 0.00 0.00 93 1015.3
20260507091542 43 353 0.0 0.0 0.00 0.00 0.00 93 1015.2
20260507090035 44 353 0.0 0.0 0.00 0.00 0.00 93 1015.1
20260507084535 44 353 0.0 0.0 0.00 0.01 0.00 93 1014.9
20260507083032 44 353 0.0 0.0 0.00 0.01 0.00 93 1014.9
20260507081531 44 353 0.0 0.0 0.00 0.01 0.00 93 1014.8